User: anonymous   Login
Location: Unspecified
(0.0000°N, 0.0000°E)
Time: 14:48:48
(UTC+01:00)
Language:

ATLAS 3B CENTAUR R/B - Orbit

View from above orbital plane
View from above orbital plane
View from above satellite
View from above satellite

Ground track
Ground track

The orbit data is extracted from the following two-line orbital elements,

1 28118U 03057B   17054.12745304  .00065842  00000-0  99954-3 0  9992
2 28118  28.1162  68.5747 3131112 131.8411 259.5300  9.21336838279072
Epoch (UTC): 23 February 2017 03:03:31
Eccentricity: 0.3131112
inclination: 28.1162°
perigee height: 224 km
apogee height: 6243 km
right ascension of ascending node: 68.5747°
argument of perigee: 131.8411°
revolutions per day: 9.21336838
mean anomaly at epoch: 259.5300°
orbit number at epoch: 27907

The dashed part of the orbit path shows where the satellite is in the earth's shadow,  

DLR